Wallops Island, VA

5:21 PM EST on December 07, 2019 (GMT -0500)
Wallops Flight Facility

Weather History for KWAL - October, 2019

Change the Weather History Date:

Monday, October 7, 2019

  Actual Average Record
Temperature  
Mean Temperature 73 °F 62 °F  
Max Temperature 81 °F 71 °F 88 °F (2007)
Min Temperature 65 °F 53 °F 40 °F (2001)
Degree Days  
Heating Degree Days 0    
Month to date heating degree days 6  
Since 1 July heating degree days 15  
Cooling Degree Days 8    
Month to date cooling degree days 52  
Year to date cooling degree days 1799  
Growing Degree Days 22 (Base 50)    
Moisture  
Dew Point 65 °F    
Average Humidity 81    
Maximum Humidity 100    
Minimum Humidity 62    
Precipitation  
Precipitation 0.00 in 0.11 in 0.72 in (2013)
Month to date precipitation T 0.73  
Year to date precipitation 34.33 32.10  
Sea Level Pressure  
Sea Level Pressure 30.15 in    
Wind  
Wind Speed 8 mph (South)    
Max Wind Speed 16 mph    
Max Gust Speed 21 mph    
Visibility 10 miles    
Events      
T = Trace of Precipitation, MM = Missing Value Source: NWS Daily Summary

Daily Weather History Graph

Daily Weather History Graph

Search for Another Location

Airport or City:

Astronomy

Oct. 07, 2019 Rise Set
Actual Time 7:02 AM EDT 6:36 PM EDT
Civil Twilight 6:36 AM EDT 7:02 PM EDT
Nautical Twilight 6:05 AM EDT 7:32 PM EDT
Astronomical Twilight 5:35 AM EDT 8:03 PM EDT
Moon 3:49 PM EDT 1:00 AM EDT
Length of Visible Light 12h 26m
Length of Day
11h 33m
Waxing Gibbous, 69% of the Moon is Illuminated
Oct 7
Waxing Gibbous
Oct 13
Full
Oct 21
Last Quarter
Oct 27
New
Nov 4
First Quarter

Hourly Weather History & Observations

Time (EDT) Temp. Dew Point Humidity Pressure Visibility Wind Dir Wind Speed Gust Speed Precip Events Conditions
12:54 AM 69.1 °F 63.0 °F 81% 30.25 in 10.0 mi SSW 8.1 mph - N/A   Clear
1:54 AM 68.0 °F 63.0 °F 84% 30.23 in 10.0 mi South 6.9 mph - N/A   Clear
2:54 AM 66.9 °F 63.0 °F 87% 30.22 in 10.0 mi SSW 6.9 mph - N/A   Clear
3:54 AM 66.9 °F 63.0 °F 87% 30.20 in 10.0 mi SSW 5.8 mph - N/A   Clear
4:54 AM 66.0 °F 62.1 °F 87% 30.20 in 10.0 mi SSW 5.8 mph - N/A   Clear
5:54 AM 68.0 °F 64.9 °F 90% 30.20 in 10.0 mi South 5.8 mph - N/A   Partly Cloudy
6:54 AM 68.0 °F 66.0 °F 93% 30.20 in 10.0 mi South 5.8 mph - N/A   Mostly Cloudy
7:54 AM 70.0 °F 66.0 °F 87% 30.20 in 10.0 mi South 4.6 mph - N/A   Mostly Cloudy
8:54 AM 73.9 °F 66.0 °F 76% 30.20 in 10.0 mi South 9.2 mph - N/A   Mostly Cloudy
9:54 AM 75.9 °F 64.9 °F 69% 30.19 in 10.0 mi South 11.5 mph - N/A   Mostly Cloudy
10:54 AM 77.0 °F 64.9 °F 66% 30.19 in 10.0 mi South 12.7 mph - N/A   Clear
11:54 AM 79.0 °F 64.9 °F 62% 30.17 in 10.0 mi South 10.4 mph - N/A   Mostly Cloudy
12:54 PM 79.0 °F 64.0 °F 60% 30.16 in 10.0 mi South 12.7 mph - N/A   Mostly Cloudy
1:54 PM 79.0 °F 64.9 °F 62% 30.12 in 10.0 mi South 15.0 mph - N/A   Mostly Cloudy
2:54 PM 79.0 °F 66.0 °F 64% 30.11 in 10.0 mi South 16.1 mph - N/A   Mostly Cloudy
3:54 PM 77.0 °F 64.9 °F 66% 30.10 in 10.0 mi South 11.5 mph - N/A   Clear
4:54 PM 75.9 °F 66.0 °F 71% 30.09 in 10.0 mi South 11.5 mph - N/A   Clear
5:54 PM 73.0 °F 66.9 °F 81% 30.08 in 10.0 mi SSE 9.2 mph - N/A   Clear
6:54 PM 72.0 °F 66.9 °F 84% 30.07 in 10.0 mi South 9.2 mph - N/A   Clear
7:54 PM 72.0 °F 66.0 °F 81% 30.07 in 10.0 mi South 6.9 mph - N/A   Clear
8:54 PM 71.1 °F 66.0 °F 84% 30.09 in 10.0 mi South 6.9 mph - N/A   Clear
9:54 PM 70.0 °F 66.9 °F 90% 30.10 in 10.0 mi South 4.6 mph - N/A   Clear
10:54 PM 66.9 °F 64.9 °F 93% 30.10 in 10.0 mi SSE 3.5 mph - N/A   Clear
11:54 PM 66.9 °F 66.0 °F 97% 30.09 in 10.0 mi Calm Calm - N/A   Clear